• In Deutschland
  • Länderverzeichnis
  • Für 7 Tage
  • Wassertemperatur
  • Satellitenkarten
  • Wetterkarte
  • Widgets
  • user-avatar
    Anmelden

    Stündliche Wetter Belfast

    Heute, 16 Januar, Dienstag

    Zeit Temperatur Niederschläge Wind Luftdruck Luftfeuchtigkeit
    00:00 0°C° 0 mm 9 m/S 739 mmHg 80%
    01:00 0°C° 0,2 mm 9 m/S 739 mmHg 79%
    02:00 0°C° 0,2 mm 9 m/S 739 mmHg 77%
    03:00 0°C° 0,2 mm 10 m/S 739 mmHg 76%
    04:00 0°C° 0,2 mm 10 m/S 739 mmHg 76%
    05:00 -2°C° 0,2 mm 10 m/S 739 mmHg 76%
    06:00 -1°C° 0 mm 8 m/S 739 mmHg 81%
    07:00 -1°C° 0,2 mm 9 m/S 739 mmHg 81%
    08:00 -1°C° 0,2 mm 9 m/S 739 mmHg 80%
    09:00 0°C° 0,2 mm 10 m/S 739 mmHg 80%
    10:00 0°C° 0,4 mm 10 m/S 739 mmHg 79%
    11:00 0°C° 0,4 mm 10 m/S 739 mmHg 78%
    12:00 -1°C° 0,4 mm 11 m/S 739 mmHg 76%
    13:00 -2°C° 0,4 mm 11 m/S 739 mmHg 77%
    14:00 -2°C° 0,4 mm 10 m/S 738 mmHg 78%
    15:00 -2°C° 0,4 mm 10 m/S 738 mmHg 79%
    16:00 -2°C° 0,5 mm 10 m/S 738 mmHg 80%
    17:00 -3°C° 0,5 mm 10 m/S 738 mmHg 80%
    18:00 -3°C° 0,5 mm 10 m/S 738 mmHg 81%
    19:00 -3°C° 0,3 mm 10 m/S 738 mmHg 81%
    20:00 -4°C° 0,3 mm 10 m/S 738 mmHg 80%
    21:00 -4°C° 0,3 mm 10 m/S 738 mmHg 79%
    22:00 -3°C° 0,2 mm 10 m/S 739 mmHg 79%
    23:00 -3°C° 0,2 mm 11 m/S 739 mmHg 80%

    Morgen, 17 Januar, Mittwoch

    Zeit Temperatur Niederschläge Wind Luftdruck Luftfeuchtigkeit
    00:00 -2°C° 0,2 mm 11 m/S 740 mmHg 80%
    01:00 -2°C° 0,2 mm 11 m/S 741 mmHg 79%
    02:00 -2°C° 0,2 mm 11 m/S 742 mmHg 78%
    03:00 -1°C° 0,2 mm 11 m/S 742 mmHg 77%
    04:00 -1°C° 0,2 mm 11 m/S 744 mmHg 79%
    05:00 0°C° 0,2 mm 10 m/S 745 mmHg 81%
    06:00 0°C° 0,2 mm 10 m/S 746 mmHg 83%
    07:00 -2°C° 0,5 mm 10 m/S 747 mmHg 82%
    08:00 -2°C° 0,5 mm 11 m/S 747 mmHg 82%
    09:00 -2°C° 0,5 mm 11 m/S 748 mmHg 81%
    10:00 -2°C° 0 mm 11 m/S 749 mmHg 82%
    11:00 -2°C° 0 mm 11 m/S 749 mmHg 82%
    12:00 0°C° 0 mm 10 m/S 750 mmHg 82%
    13:00 0°C° 0,1 mm 9 m/S 750 mmHg 84%
    14:00 0°C° 0,1 mm 9 m/S 750 mmHg 85%
    15:00 0°C° 0,1 mm 8 m/S 750 mmHg 87%
    16:00 0°C° 0,3 mm 8 m/S 749 mmHg 89%
    17:00 0°C° 0,3 mm 7 m/S 748 mmHg 91%
    18:00 -1°C° 0,3 mm 7 m/S 747 mmHg 93%
    19:00 0°C° 1,5 mm 7 m/S 745 mmHg 94%
    20:00 +1°C° 1,5 mm 6 m/S 742 mmHg 96%
    21:00 +1°C° 1,5 mm 6 m/S 740 mmHg 97%
    22:00 0°C° 1 mm 8 m/S 739 mmHg 97%
    23:00 0°C° 1 mm 9 m/S 738 mmHg 97%

    übermorgen, 18 Januar, Donnerstag

    Zeit Temperatur Niederschläge Wind Luftdruck Luftfeuchtigkeit
    00:00 +1°C° 1 mm 11 m/S 738 mmHg 97%
    01:00 +1°C° 0,1 mm 10 m/S 739 mmHg 96%
    02:00 0°C° 0,1 mm 9 m/S 741 mmHg 95%
    03:00 0°C° 0,1 mm 8 m/S 742 mmHg 94%
    04:00 0°C° 0,2 mm 8 m/S 743 mmHg 93%
    05:00 0°C° 0,2 mm 7 m/S 743 mmHg 93%
    06:00 -1°C° 0,2 mm 7 m/S 744 mmHg 92%
    07:00 -1°C° 0,2 mm 7 m/S 744 mmHg 92%
    08:00 -1°C° 0,2 mm 6 m/S 744 mmHg 91%
    09:00 -1°C° 0,2 mm 6 m/S 745 mmHg 91%
    10:00 +1°C° 0,1 mm 6 m/S 745 mmHg 89%
    11:00 +1°C° 0,1 mm 6 m/S 746 mmHg 88%
    12:00 0°C° 0,1 mm 7 m/S 746 mmHg 87%
    13:00 0°C° 0,1 mm 7 m/S 746 mmHg 86%
    14:00 0°C° 0,1 mm 7 m/S 746 mmHg 85%
    15:00 0°C° 0,1 mm 7 m/S 747 mmHg 85%
    16:00 -1°C° 0,1 mm 7 m/S 747 mmHg 85%
    17:00 -1°C° 0,1 mm 7 m/S 747 mmHg 85%
    18:00 -1°C° 0,1 mm 7 m/S 747 mmHg 86%
    19:00 -2°C° 0,1 mm 7 m/S 747 mmHg 86%
    20:00 -2°C° 0,1 mm 7 m/S 747 mmHg 86%
    21:00 -2°C° 0,1 mm 7 m/S 747 mmHg 86%
    22:00 -2°C° 0,1 mm 8 m/S 747 mmHg 86%
    23:00 -2°C° 0,1 mm 8 m/S 747 mmHg 85%

    19 Januar, Freitag

    Zeit Temperatur Niederschläge Wind Luftdruck Luftfeuchtigkeit
    00:00 -2°C° 0,1 mm 8 m/S 747 mmHg 85%
    01:00 -2°C° 0,1 mm 8 m/S 747 mmHg 84%
    02:00 -2°C° 0,1 mm 8 m/S 747 mmHg 83%
    03:00 -4°C° 0,1 mm 8 m/S 747 mmHg 82%
    04:00 -2°C° 0,1 mm 8 m/S 746 mmHg 84%
    05:00 -2°C° 0,1 mm 8 m/S 746 mmHg 85%
    06:00 -2°C° 0,1 mm 8 m/S 746 mmHg 87%
    07:00 -2°C° 0,2 mm 8 m/S 747 mmHg 86%
    08:00 -1°C° 0,2 mm 8 m/S 747 mmHg 84%
    09:00 -1°C° 0,2 mm 9 m/S 747 mmHg 83%
    10:00 -1°C° 0,1 mm 8 m/S 747 mmHg 82%
    11:00 -1°C° 0,1 mm 8 m/S 748 mmHg 81%
    12:00 -1°C° 0,1 mm 8 m/S 748 mmHg 80%
    13:00 -1°C° 0 mm 8 m/S 748 mmHg 80%
    14:00 0°C° 0 mm 8 m/S 748 mmHg 80%
    15:00 0°C° 0 mm 8 m/S 748 mmHg 79%
    16:00 -1°C° 0,1 mm 8 m/S 748 mmHg 80%
    17:00 -1°C° 0,1 mm 8 m/S 749 mmHg 81%
    18:00 -1°C° 0,1 mm 8 m/S 749 mmHg 82%
    19:00 -1°C° 0,1 mm 8 m/S 749 mmHg 81%
    20:00 -1°C° 0,1 mm 7 m/S 749 mmHg 80%
    21:00 -1°C° 0,1 mm 7 m/S 750 mmHg 79%
    22:00 -1°C° 0,1 mm 8 m/S 750 mmHg 79%
    23:00 -1°C° 0,1 mm 8 m/S 750 mmHg 80%

    20 Januar, Samstag

    Zeit Temperatur Niederschläge Wind Luftdruck Luftfeuchtigkeit
    00:00 -1°C° 0,1 mm 8 m/S 751 mmHg 80%
    01:00 -1°C° 0,1 mm 9 m/S 751 mmHg 79%
    02:00 0°C° 0,1 mm 9 m/S 752 mmHg 79%
    03:00 0°C° 0,1 mm 9 m/S 752 mmHg 78%
    04:00 -1°C° 0 mm 8 m/S 753 mmHg 80%
    05:00 -1°C° 0 mm 7 m/S 754 mmHg 81%
    06:00 -1°C° 0 mm 7 m/S 754 mmHg 82%
    07:00 -2°C° 0 mm 6 m/S 755 mmHg 83%
    08:00 -1°C° 0 mm 5 m/S 755 mmHg 84%
    09:00 -1°C° 0 mm 4 m/S 756 mmHg 85%
    10:00 -1°C° 0 mm 4 m/S 756 mmHg 85%
    11:00 +1°C° 0 mm 3 m/S 756 mmHg 85%
    12:00 +2°C° 0 mm 3 m/S 757 mmHg 85%
    13:00 +3°C° 0 mm 2 m/S 756 mmHg 86%
    14:00 +3°C° 0 mm 2 m/S 756 mmHg 87%
    15:00 +3°C° 0 mm 2 m/S 756 mmHg 88%
    16:00 +3°C° 0 mm 2 m/S 757 mmHg 88%
    17:00 +3°C° 0 mm 1 m/S 757 mmHg 89%
    18:00 +2°C° 0 mm 1 m/S 757 mmHg 89%
    19:00 +1°C° 0 mm 2 m/S 757 mmHg 89%
    20:00 +1°C° 0 mm 2 m/S 757 mmHg 89%
    21:00 +2°C° 0 mm 2 m/S 758 mmHg 89%
    22:00 +2°C° 0 mm 2 m/S 758 mmHg 89%
    23:00 +1°C° 0 mm 3 m/S 758 mmHg 89%

    21 Januar, Sonntag

    Zeit Temperatur Niederschläge Wind Luftdruck Luftfeuchtigkeit
    00:00 +1°C° 0 mm 3 m/S 758 mmHg 89%
    01:00 +1°C° 0,1 mm 4 m/S 758 mmHg 90%
    02:00 +1°C° 0,1 mm 4 m/S 757 mmHg 90%
    03:00 +1°C° 0,1 mm 5 m/S 757 mmHg 91%
    04:00 +1°C° 0,2 mm 5 m/S 757 mmHg 92%
    05:00 +2°C° 0,2 mm 6 m/S 757 mmHg 94%
    06:00 +2°C° 0,2 mm 6 m/S 757 mmHg 95%
    07:00 +2°C° 0,1 mm 6 m/S 757 mmHg 95%
    08:00 +3°C° 0,1 mm 6 m/S 757 mmHg 96%
    09:00 +3°C° 0,1 mm 6 m/S 757 mmHg 97%
    10:00 +3°C° 0,1 mm 6 m/S 757 mmHg 97%
    11:00 +5°C° 0,1 mm 5 m/S 757 mmHg 97%
    12:00 +5°C° 0,1 mm 5 m/S 757 mmHg 97%
    13:00 +5°C° 0 mm 5 m/S 757 mmHg 97%
    14:00 +5°C° 0 mm 4 m/S 757 mmHg 96%
    15:00 +5°C° 0 mm 4 m/S 757 mmHg 96%
    16:00 +4°C° 0 mm 3 m/S 756 mmHg 96%
    17:00 +4°C° 0 mm 3 m/S 756 mmHg 96%
    18:00 +4°C° 0 mm 2 m/S 756 mmHg 96%
    19:00 +4°C° 0 mm 2 m/S 756 mmHg 96%
    20:00 +4°C° 0 mm 2 m/S 756 mmHg 96%
    21:00 +4°C° 0 mm 2 m/S 756 mmHg 96%
    22:00 +4°C° 0 mm 2 m/S 756 mmHg 96%
    23:00 +3°C° 0 mm 2 m/S 756 mmHg 95%
    Mehr zeigen